Volver al catálogo

FENGYUN 1C DEB

LostPO
NORAD 38505·DEBRIS·🇨🇳 China

Lanzado May 10, 1999 desde Taiyuan Satellite Launch Center

Loading…

Próximos Pases (próximas 24 horas)

TLE

ObsoletoSource: Space-Track

Época: Aug 22, 2022, 20:47 UTC

1 38505U 99025ESQ 22234.86611318  .00002341  00000-0  13171-2 0  9998
2 38505  98.3426 107.4531 0180001  67.7846 294.2309 14.03416269679584

Sigue FENGYUN 1C DEB en tiempo real con AllMySat

Download on the App Store